Location: ČR
(50.0000°N, 15.0000°E)
Time: 14:56:55
(UTC+00:00)

Transit 4A - All Passes

Search period start: 25 October 2021 00:00
Search period end: 04 November 2021 00:00
Orbit: 869 x 976 km, 66.8° (Epoch: 24 October)

Date Brightness Start Highest point End Pass type
(mag) Time Alt. Az. Time Alt. Az. Time Alt. Az.
25 Oct - 02:15:40 10° SSE 02:19:40 19° ESE 02:23:43 10° ENE visible
25 Oct - 03:59:24 10° SW 04:05:14 87° NW 04:11:13 10° NE visible
25 Oct - 05:47:30 10° W 05:52:25 27° NNW 05:57:27 10° NNE daylight
25 Oct - 07:37:22 10° NW 07:40:56 16° N 07:44:33 10° NNE daylight
25 Oct - 09:25:04 10° NNW 09:29:39 22° NNE 09:34:19 10° ENE daylight
25 Oct - 11:11:15 10° NNW 11:17:17 58° NE 11:23:26 10° SE daylight
25 Oct - 12:57:58 10° NW 13:03:25 34° WSW 13:08:58 10° S daylight
26 Oct - 02:23:50 10° SSE 02:28:40 28° ESE 02:33:34 10° NE visible
26 Oct - 04:08:48 10° SW 04:14:35 65° NW 04:20:32 10° NNE visible
26 Oct - 05:57:32 10° WNW 06:02:06 23° NNW 06:06:46 10° NNE daylight
26 Oct - 07:47:13 10° NW 07:50:47 16° N 07:54:24 10° NE daylight
26 Oct - 09:34:22 10° NNW 09:39:21 26° NNE 09:44:25 10° E daylight
26 Oct - 11:20:33 10° NW 11:26:40 77° NE 11:32:57 10° SE daylight
26 Oct - 13:07:40 10° WNW 13:12:30 25° WSW 13:17:23 10° SSW daylight
27 Oct - 02:32:24 10° S 02:37:44 39° ESE 02:43:12 10° NE visible
27 Oct - 04:18:21 10° WSW 04:24:00 49° NW 04:29:49 10° NNE visible
27 Oct - 06:07:38 10° WNW 06:11:50 20° NNW 06:16:08 10° NNE daylight
27 Oct - 07:56:54 10° NNW 08:00:37 16° N 08:04:23 10° NE daylight
27 Oct - 09:43:39 10° NNW 09:48:59 31° NE 09:54:26 10° E daylight
27 Oct - 11:29:51 10° NW 11:35:59 80° WSW 11:42:15 10° SSE daylight
27 Oct - 13:17:41 10° WNW 13:21:29 17° WSW 13:25:19 10° SW daylight
28 Oct - 02:41:14 10° SSW 02:46:53 56° ESE 02:52:41 10° NE visible
28 Oct - 04:28:04 10° WSW 04:33:30 38° NW 04:39:04 10° NNE visible
28 Oct - 06:17:44 10° NW 06:21:38 18° NNW 06:25:36 10° NNE daylight
28 Oct - 08:06:27 10° NNW 08:10:27 18° NNE 08:14:30 10° NE daylight
28 Oct - 09:52:54 10° NNW 09:58:34 38° NE 10:04:21 10° ESE daylight
28 Oct - 11:39:14 10° NW 11:45:14 59° WSW 11:51:23 10° SSE daylight
28 Oct - 13:28:36 10° W 13:30:24 11° W 13:32:13 10° WSW daylight
29 Oct - 01:07:35 10° SE 01:10:46 15° ESE 01:13:57 10° ENE visible
29 Oct - 02:50:18 10° SSW 02:56:06 78° SE 03:02:04 10° NE visible
29 Oct - 04:37:56 10° W 04:43:04 30° NW 04:48:20 10° NNE visible
29 Oct - 06:27:47 10° NW 06:31:27 16° N 06:35:11 10° NNE daylight
29 Oct - 08:15:53 10° NNW 08:20:14 20° NNE 08:24:40 10° ENE daylight
29 Oct - 10:02:09 10° NNW 10:08:04 49° NE 10:14:07 10° ESE daylight
29 Oct - 11:48:41 10° NW 11:54:25 43° WSW 12:00:16 10° S daylight
30 Oct - 01:15:22 10° SSE 01:19:43 22° ESE 01:24:07 10° ENE visible
30 Oct - 02:59:34 10° SW 03:05:24 79° NW 03:11:25 10° NE visible
30 Oct - 04:47:54 10° W 04:52:43 25° NNW 04:57:38 10° NNE visible
30 Oct - 06:37:44 10° NW 06:41:18 16° N 06:44:55 10° NE daylight
30 Oct - 08:25:13 10° NNW 08:29:59 23° NNE 08:34:48 10° ENE daylight
30 Oct - 10:11:24 10° NNW 10:17:30 64° NE 10:23:43 10° SE daylight
30 Oct - 11:58:15 10° NW 12:03:31 31° WSW 12:08:53 10° S daylight
31 Oct - 01:23:42 10° S 01:28:44 31° ESE 01:33:53 10° NE visible
31 Oct - 03:09:01 10° SW 03:14:46 59° NW 03:20:42 10° NNE visible
31 Oct - 04:57:58 10° WNW 05:02:26 21° NNW 05:06:58 10° NNE visible
31 Oct - 06:47:32 10° NNW 06:51:09 16° N 06:54:49 10° NE daylight
31 Oct - 08:34:31 10° NNW 08:39:39 27° NNE 08:44:53 10° E daylight
31 Oct - 10:20:43 10° NW 10:26:52 85° NE 10:33:10 10° SE daylight
31 Oct - 12:08:02 10° WNW 12:12:34 22° WSW 12:17:10 10° SSW daylight
01 Nov - 01:32:22 10° S 01:37:50 45° ESE 01:43:27 10° NE visible
01 Nov - 03:18:39 10° WSW 03:24:14 45° NW 03:29:59 10° NNE visible
01 Nov - 05:08:04 10° WNW 05:12:11 19° NNW 05:16:22 10° NNE visible
01 Nov - 06:57:09 10° NNW 07:00:59 17° N 07:04:52 10° NE daylight
01 Nov - 08:43:48 10° NNW 08:49:16 33° NE 08:54:52 10° E daylight
01 Nov - 10:30:02 10° NW 10:36:09 72° WSW 10:42:25 10° SSE daylight
01 Nov - 12:18:14 10° WNW 12:21:32 15° WSW 12:24:52 10° SW daylight
02 Nov - 00:00:07 10° ESE 00:01:53 11° E 00:03:40 10° E visible
02 Nov - 01:41:17 10° SSW 01:47:01 63° ESE 01:52:54 10° NE visible
02 Nov - 03:28:25 10° WSW 03:33:45 35° NW 03:39:15 10° NNE visible
02 Nov - 05:18:09 10° NW 05:21:59 17° NNW 05:25:52 10° NNE visible
02 Nov - 07:06:40 10° NNW 07:10:48 19° NNE 07:15:00 10° ENE daylight
02 Nov - 08:53:02 10° NNW 08:58:49 42° NE 09:04:44 10° ESE daylight
02 Nov - 10:39:26 10° NW 10:45:23 53° WSW 10:51:27 10° SSE daylight
03 Nov - 00:07:07 10° SE 00:10:48 17° ESE 00:14:31 10° ENE visible
03 Nov - 01:50:25 10° SSW 01:56:16 86° SE 02:02:16 10° NE visible
03 Nov - 03:38:19 10° W 03:43:21 28° NNW 03:48:31 10° NNE visible
03 Nov - 05:28:10 10° NW 05:31:49 16° N 05:35:30 10° NNE daylight
03 Nov - 07:16:03 10° NNW 07:20:34 21° NNE 07:25:09 10° ENE daylight
03 Nov - 09:02:18 10° NNW 09:08:18 54° NE 09:14:26 10° ESE daylight
03 Nov - 10:48:56 10° NW 10:54:32 38° WSW 11:00:15 10° S daylight
